Location: Bruch
(44.2051°N, 0.4120°E)
Time: 05:11:01
(UTC+00:00)

NOSS 3-4 (A) - Pass Details

Date: 29 November 2020
Orbit: 879 x 1333 km, 63.4° (Epoch: 25 January)

Event Time Altitude Azimuth Distance (km) Brightness Sun altitude
Exits shadow 04:00:39 56° 87° (E) 1,076 3.9 -33.6°
Drops below altitude 10° 04:05:58 10° 43° (NE) 2,690 6.3 -32.7°
Sets 04:08:39 0° 40° (NE) 3,697 7.0 -32.2°
